#timestamp,LO_Frequency,Hit,StdDev 
1594375215.3,286047001.2,N
1594375235.1,286046998.2,N
1594375255.9,286046998.8,N
1594375275.7,286046998.9,N
1594375295.5,286046996.5,Y
1594375315.4,286046998.6,P
1594375335.2,286046998.2,P
1594375355.0,286046998.7,P
1594375356.0,286046998.7,Y
1594375375.8,286047000.0,P
1594375395.6,286047000.7,N
1594375415.5,286046999.9,N
1594375435.3,286046999.9,N
1594375455.1,286047002.7,Y
1594375475.9,286047002.3,P
1594375495.7,286047002.3,N
1594375515.6,286047002.3,N
1594375535.4,286047000.2,N
1594375555.2,286047000.1,N
1594375575.1,286047002.7,N
1594375576.0,286047002.7,N
1594375595.8,286047002.3,N
1594375615.6,286047002.5,N
1594375635.5,286047002.6,N
1594375655.3,286047002.6,N
1594375675.2,286047002.6,N
1594375695.9,286047002.4,N
1594375715.7,286047001.8,N
1594375735.6,286047004.0,Y
1594375755.4,286047001.5,P
1594375775.2,286047001.6,P
1594375795.1,286047001.9,P
1594375796.0,286047001.9,Y
1594375815.8,286047000.7,P
1594375835.7,286046998.7,N
1594375855.5,286046999.4,N
1594375875.3,286046998.3,N
1594375895.2,286046998.5,N
1594375915.0,286046998.6,N
1594375915.9,286046998.6,N
1594375935.7,286046999.3,N
1594375955.6,286046999.2,N
1594375975.4,286046999.3,N
1594375995.3,286046996.5,Y
1594376015.1,286046996.6,P
1594376016.0,286046996.6,N
1594376035.8,286046999.1,N
1594376055.7,286046996.9,N
1594376075.5,286046997.1,N
1594376095.4,286046994.9,Y
1594376115.2,286046998.8,P
1594376135.0,286046998.4,N
1594376135.9,286046998.4,P
1594376155.8,286046999.3,N
1594376175.6,286046999.4,N
1594376195.4,286046998.3,N
1594376215.3,286046998.7,N
1594376235.1,286046999.1,N
1594376255.9,286046998.9,N
1594376275.7,286046998.8,N
1594376295.5,286046999.4,N
1594376315.4,286046998.9,N
1594376335.2,286046999.3,N
1594376355.0,286046999.4,N
1594376355.9,286046999.4,N
1594376375.8,286046998.8,N
1594376395.6,286046999.1,N
1594376415.4,286046999.1,N
1594376435.3,286046998.8,N
1594376455.1,286046999.0,N
1594376475.9,286046999.0,N
1594376495.7,286046998.1,Y
1594376515.5,286047001.0,P
1594376535.4,286047000.9,N
1594376555.2,286046998.2,N
1594376575.1,286046998.5,N
1594376576.0,286046998.5,N
1594376595.8,286046998.5,N
1594376615.6,286047000.9,N
1594376635.5,286047001.1,N
1594376655.3,286047000.7,N
1594376675.1,286047001.1,N
1594376695.9,286047000.8,N
1594376715.7,286047001.1,N
1594376735.6,286047001.1,N
1594376755.4,286047001.2,N
1594376775.2,286046998.1,N
1594376795.1,286046998.7,N
1594376796.0,286046998.7,N
1594376815.8,286046998.1,N
1594376835.6,286047000.8,N
1594376855.5,286047000.8,N
1594376875.3,286046998.6,N
1594376895.1,286047001.2,N
1594376915.9,286047000.7,N
1594376935.7,286046998.6,N
1594376955.6,286046998.4,N
1594376975.4,286046998.3,N
1594376995.2,286047001.1,N
1594377015.1,286046998.1,N
1594377016.0,286046998.1,N
1594377035.8,286046998.7,N
1594377055.6,286046999.2,N
1594377075.5,286046999.3,N
1594377095.3,286046999.4,N
1594377115.2,286046999.3,N
1594377135.9,286046999.4,N
1594377155.7,286046999.4,N
1594377175.6,286046999.4,N
1594377195.4,286046999.2,N
1594377215.2,286046999.2,N
1594377235.1,286046999.2,N
1594377236.0,286046999.2,N
1594377255.8,286046999.1,N
1594377275.7,286046999.6,N
1594377295.5,286046999.6,N
1594377315.3,286046996.6,Y
1594377335.2,286046998.8,P
1594377355.0,286046998.2,P
1594377355.9,286046998.2,P
1594377375.8,286046998.4,Y
1594377395.6,286047000.3,P
1594377415.4,286047002.7,P
1594377435.3,286046999.9,N
1594377455.1,286047000.0,N
1594377475.8,286047000.0,N
1594377495.7,286046996.5,N
1594377515.5,286046997.0,N
1594377535.4,286047001.0,N
1594377555.2,286046996.9,N
1594377575.0,286046999.2,N
1594377575.9,286046999.2,N
1594377595.8,286046996.8,N
1594377615.6,286046995.4,N
1594377635.4,286046997.6,N
1594377655.3,286046995.5,N
1594377675.1,286046994.5,N
1594377695.9,286046991.6,Y
1594377715.7,286046990.4,P
1594377735.5,286046988.5,N
1594377755.4,286046991.5,N
1594377775.2,286046985.3,Y
1594377795.0,286046991.7,P
1594377795.9,286046991.7,P
1594377815.8,286046991.3,P
1594377835.6,286046989.2,Y
1594377855.5,286046996.6,P
1594377875.3,286046998.3,N
1594377895.1,286046999.3,N
1594377915.9,286046998.9,N
1594377935.7,286046998.4,N
1594377955.5,286047001.1,N
1594377975.4,286046998.7,N
1594377995.2,286046999.8,N
1594378015.1,286047002.4,N
1594378016.0,286047002.4,N
1594378035.8,286047000.7,N
1594378055.6,286047002.1,N
1594378075.5,286047002.3,N
1594378095.3,286047002.3,N
1594378115.1,286047002.6,N
1594378135.9,286047002.8,N
1594378155.7,286047002.4,N
1594378175.6,286047003.5,N
1594378195.4,286047003.8,N
1594378215.2,286047001.7,N
1594378235.1,286047003.5,N
1594378236.0,286047003.5,N
1594378255.8,286047004.3,N
1594378275.6,286047003.7,N
1594378295.5,286047004.1,N
1594378315.3,286047003.6,N
1594378335.2,286047003.8,N
1594378355.9,286047005.3,N
1594378375.7,286047005.1,N
1594378395.6,286047004.5,N
1594378415.4,286047005.1,N
1594378435.2,286047007.5,Y
1594378455.1,286047003.5,P
1594378456.0,286047003.5,P
1594378475.8,286047005.8,P
1594378495.7,286047003.3,N
1594378515.5,286047003.2,N
1594378535.3,286047003.1,N
1594378555.2,286047003.4,Y
1594378575.0,286047000.5,P
1594378575.9,286047000.5,N
1594378595.7,286046999.9,N
1594378615.6,286047002.7,N
1594378635.4,286047000.4,N
1594378655.3,286047001.0,N
1594378675.1,286046998.1,N
1594378676.0,286046998.1,N
1594378695.8,286047001.1,N
1594378715.7,286047002.3,N
1594378735.5,286047000.1,N
1594378755.3,286047003.9,N
1594378775.2,286047005.5,Y
1594378795.0,286047001.9,P
1594378795.9,286047001.9,P
